Regional Weather Roundup
Issued by NWS

Home | Current Version | Previous Version | Graphics & Text | Print | Product List | Glossary On
Versions: 1 2 3 4 5 6 7 8 9 10 11 12 13 14 15 16 17 18 19 20 21 22 23 24 25 26 27 28 29 30 31 32 33 34 35 36 37 38 39 40 41 42 43 44 45 46 47 48 49 50
000
ASUS43 KLMK 281310
RWRKY
KENTUCKY REGIONAL WEATHER ROUNDUP
NATIONAL WEATHER SERVICE LOUISVILLE KY
800 AM EST SUN DEC 28 2014

NOTE "FAIR" INDICATES FEW OR NO CLOUDS BELOW 12,000 FEET
WITH NO SIGNIFICANT WEATHER AND/OR OBSTRUCTIONS TO VISIBILITY.

KYZ001>023-026-027-061>063-070>075-281400-
WESTERN AND SOUTH CENTRAL KENTUCKY

CITY           SKY/WX    TMP DP  RH WIND       PRES   REMARKS
PADUCAH        CLOUDY    35  32  88 N10       30.19R WCI  27
HENDERSON      CLOUDY    34  28  80 N8        30.20R WCI  27
OWENSBORO      CLOUDY    36  33  88 N10       30.19R WCI  28
HOPKINSVILLE   CLOUDY    37  36  93 N6        30.16S WCI  33
BOWLING GREEN  CLOUDY    40  37  89 N3        30.15R
GLASGOW        CLOUDY    39  39 100 NW3       30.15R FOG
$$

KYZ024-025-028>034-038-045-046-053-281400-
NORTH CENTRAL KENTUCKY

CITY           SKY/WX    TMP DP  RH WIND       PRES   REMARKS
LOUISVILLE/SDF DRIZZLE   39  36  89 NW8       30.13R WCI  33
LOUISVILLE/LOU CLOUDY    38  36  92 N5        30.13R WCI  34
FORT KNOX      CLOUDY    37  36  93 NW6       30.13R WCI  33
$$

KYZ035>037-039>044-047>052-055>060-089>105-281400-
NORTHEAST KENTUCKY

CITY           SKY/WX    TMP DP  RH WIND       PRES   REMARKS
LEXINGTON      CLOUDY    38  37  97 N10       30.10R WCI  31
COVINGTON      CLOUDY    36  31  82 N9        30.10F WCI  29
FRANKFORT      CLOUDY    37  34  89 NW6       30.10R WCI  32
$$

KYZ054-064>069-076>088-106>120-281400-
SOUTHEAST KENTUCKY

CITY           SKY/WX    TMP DP  RH WIND       PRES   REMARKS
JACKSON        LGT RAIN  46  45  96 CALM      30.05S VSB 1
LONDON         RAIN      47  43  86 CALM      30.07R FOG
SOMERSET       LGT RAIN  45  45 100 CALM      30.09R
MIDDLESBORO    RAIN      47  47 100 CALM      30.07R
MONTICELLO     CLOUDY    48  48 100 CALM      30.11R FOG
$$



USA.gov is the U.S. government's official web portal to all federal, state and local government web resources and services.